,,Stat6,,Stat2,,Stat8,,Stat9,,Stat10,,Wind1,,Wind1,
time,status,PA1M_AVG,status,PR1M_SUM,status,RH1M_AVG,status,SR1M_AVG,status,TA1M_AVG,status,W1dAve1m,status,W1sAve1m,
2005-03-03, 00:00:00,VALID,923.567,VALID,0,VALID,79.1358,VALID,0.0339617,VALID,22.3033,VALID,122,VALID,1.37234,
2005-03-03, 00:01:00,VALID,923.584,VALID,0,VALID,78.9832,VALID,0.0509425,VALID,22.2575,VALID,137,VALID,2.12969,
2005-03-03, 00:02:00,VALID,923.587,VALID,0,VALID,79.1879,VALID,0.0509425,VALID,22.2801,VALID,122,VALID,2.2763,
2005-03-03, 00:03:00,VALID,923.564,VALID,0,VALID,79.1294,VALID,0.0509425,VALID,22.2769,VALID,125,VALID,1.3324,
2005-03-03, 00:04:00,VALID,923.585,VALID,0,VALID,79.1777,VALID,0.0509425,VALID,22.2677,VALID,137,VALID,1.34375,
2005-03-03, 00:05:00,VALID,923.577,VALID,0,VALID,79.2464,VALID,0.0169808,VALID,22.2639,VALID,115,VALID,1.34933,
2005-03-03, 00:06:00,VALID,923.591,VALID,0,VALID,79.1192,VALID,0.0849042,VALID,22.2542,VALID,122,VALID,1.08155,
2005-03-03, 00:07:00,VALID,923.61,VALID,0,VALID,79.2528,VALID,0.0679233,VALID,22.2542,VALID,90,VALID,0.902083,
2005-03-03, 00:08:00,VALID,923.617,VALID,0,VALID,79.652,VALID,0.0509425,VALID,22.2481,VALID,92,VALID,0.886814,
2005-03-03, 00:09:00,VALID,923.602,VALID,0,VALID,79.7932,VALID,0.0679233,VALID,22.1964,VALID,94,VALID,0.761364,
2005-03-03, 00:10:00,VALID,923.598,VALID,0,VALID,79.6126,VALID,0.0679233,VALID,22.1638,VALID,110,VALID,1.46584,
2005-03-03, 00:11:00,VALID,923.598,VALID,0,VALID,79.7436,VALID,0.0679233,VALID,22.167,VALID,138,VALID,1.98845,
2005-03-03, 00:12:00,VALID,923.606,VALID,0,VALID,79.6508,VALID,0.0679233,VALID,22.1606,VALID,97,VALID,2.01871,
2005-03-03, 00:13:00,VALID,923.614,VALID,0,VALID,79.2019,VALID,-0.0509425,VALID,22.191,VALID,131,VALID,2.71328,
2005-03-03, 00:14:00,VALID,923.656,VALID,0,VALID,79.3011,VALID,-0.0339617,VALID,22.2365,VALID,119,VALID,1.45778,
2005-03-03, 00:15:00,VALID,923.661,VALID,0,VALID,79.3316,VALID,-0.0339617,VALID,22.2365,VALID,126,VALID,1.42014,
2005-03-03, 00:16:00,VALID,923.686,VALID,0,VALID,79.6622,VALID,-0.0339617,VALID,22.2398,VALID,94,VALID,1.17312,
2005-03-03, 00:17:00,VALID,923.656,VALID,0,VALID,79.7474,VALID,-0.0339617,VALID,22.2042,VALID,142,VALID,1.131,
2005-03-03, 00:18:00,VALID,923.604,VALID,0,VALID,79.3405,VALID,-0.0679233,VALID,22.2045,VALID,187,VALID,1.45749,
2005-03-03, 00:19:00,VALID,923.597,VALID,0,VALID,79.2922,VALID,0,VALID,22.2266,VALID,166,VALID,2.4286,
2005-03-03, 00:20:00,VALID,923.612,VALID,0,VALID,79.3354,VALID,-0.0169808,VALID,22.2559,VALID,132,VALID,2.07613,
2005-03-03, 00:21:00,VALID,923.612,VALID,0,VALID,79.2146,VALID,0,VALID,22.2556,VALID,79,VALID,2.08994,
2005-03-03, 00:22:00,VALID,923.638,VALID,0,VALID,79.3837,VALID,-0.0509425,VALID,22.2688,VALID,124,VALID,1.70713,
2005-03-03, 00:23:00,VALID,923.629,VALID,0,VALID,78.9933,VALID,-0.0509425,VALID,22.2721,VALID,94,VALID,2.80778,
2005-03-03, 00:24:00,VALID,923.648,VALID,0,VALID,79.413,VALID,-0.0169808,VALID,22.2718,VALID,136,VALID,1.87305,
2005-03-03, 00:25:01,VALID,923.666,VALID,0,VALID,79.7385,VALID,-0.0509425,VALID,22.2592,VALID,136,VALID,1.80469,
2005-03-03, 00:26:01,VALID,923.679,VALID,0,VALID,80.1225,VALID,-0.0679233,VALID,22.2166,VALID,118,VALID,1.73029,
2005-03-03, 00:27:00,VALID,923.636,VALID,0,VALID,79.179,VALID,-0.0679233,VALID,22.2037,VALID,126,VALID,3.30957,
2005-03-03, 00:28:01,VALID,923.658,VALID,0,VALID,79.4727,VALID,-0.0679233,VALID,22.2624,VALID,94,VALID,1.61573,
2005-03-03, 00:29:00,VALID,923.627,VALID,0,VALID,79.1447,VALID,-0.0339617,VALID,22.2718,VALID,134,VALID,1.28052,
2005-03-03, 00:30:00,VALID,923.63,VALID,0,VALID,78.8954,VALID,-0.0509425,VALID,22.3076,VALID,158,VALID,1.85956,
2005-03-03, 00:31:00,VALID,923.608,VALID,0,VALID,79.118,VALID,-0.0679233,VALID,22.327,VALID,131,VALID,1.25799,
2005-03-03, 00:32:00,VALID,923.615,VALID,0,VALID,79.4015,VALID,-0.0339617,VALID,22.3073,VALID,116,VALID,1.43006,
2005-03-03, 00:33:01,VALID,923.61,VALID,0,VALID,79.7512,VALID,-0.0169808,VALID,22.2882,VALID,136,VALID,1.95188,
2005-03-03, 00:34:00,VALID,923.598,VALID,0,VALID,79.8682,VALID,-0.0509425,VALID,22.2527,VALID,129,VALID,1.87944,
2005-03-03, 00:35:00,VALID,923.596,VALID,0,VALID,79.8491,VALID,-0.0509425,VALID,22.2368,VALID,109,VALID,1.10007,
2005-03-03, 00:36:00,VALID,923.584,VALID,0,VALID,79.7665,VALID,-0.0849042,VALID,22.2271,VALID,120,VALID,1.78711,
2005-03-03, 00:37:00,VALID,923.55,VALID,0,VALID,79.6813,VALID,-0.0509425,VALID,22.2236,VALID,111,VALID,1.7048,
2005-03-03, 00:38:00,VALID,923.536,VALID,0,VALID,79.68,VALID,-0.0169808,VALID,22.233,VALID,92,VALID,1.87682,
2005-03-03, 00:39:00,VALID,923.552,VALID,0,VALID,79.5999,VALID,-0.0509425,VALID,22.2174,VALID,120,VALID,1.51035,
2005-03-03, 00:40:00,VALID,923.551,VALID,0,VALID,79.8199,VALID,-0.0679233,VALID,22.2045,VALID,130,VALID,1.36338,
2005-03-03, 00:41:01,VALID,923.556,VALID,0,VALID,79.9699,VALID,-0.0679233,VALID,22.198,VALID,81,VALID,1.6901,
2005-03-03, 00:42:00,VALID,923.546,VALID,0,VALID,80.1467,VALID,-0.0509425,VALID,22.1684,VALID,136,VALID,1.90285,
2005-03-03, 00:43:00,VALID,923.57,VALID,0,VALID,80.0946,VALID,-0.0509425,VALID,22.1657,VALID,135,VALID,2.0199,
2005-03-03, 00:44:00,VALID,923.581,VALID,0,VALID,80.6719,VALID,-0.0339617,VALID,22.1391,VALID,134,VALID,1.14648,
2005-03-03, 00:45:01,VALID,923.588,VALID,0,VALID,81.0851,VALID,-0.0509425,VALID,22.0968,VALID,114,VALID,0.923328,
2005-03-03, 00:46:00,VALID,923.569,VALID,0,VALID,80.6808,VALID,-0.0169808,VALID,22.0618,VALID,115,VALID,1.59596,
2005-03-03, 00:47:01,VALID,923.562,VALID,0,VALID,80.724,VALID,-0.0169808,VALID,22.0454,VALID,129,VALID,1.52673,
2005-03-03, 00:48:01,VALID,923.57,VALID,0,VALID,81.0521,VALID,-0.0509425,VALID,22.0621,VALID,135,VALID,1.68155,
2005-03-03, 00:49:00,VALID,923.555,VALID,0,VALID,81.4158,VALID,-0.0679233,VALID,22.0427,VALID,147,VALID,1.98571,
2005-03-03, 00:50:00,VALID,923.542,VALID,0,VALID,81.2161,VALID,-0.0169808,VALID,22.0298,VALID,149,VALID,2.01029,
2005-03-03, 00:51:00,VALID,923.541,VALID,0,VALID,81.0877,VALID,-0.101885,VALID,22.0362,VALID,135,VALID,1.46948,
2005-03-03, 00:52:00,VALID,923.533,VALID,0,VALID,81.0635,VALID,-0.0679233,VALID,22.0527,VALID,87,VALID,1.03924,
2005-03-03, 00:53:00,VALID,923.528,VALID,0,VALID,80.7202,VALID,-0.0679233,VALID,22.0427,VALID,119,VALID,1.51582,
2005-03-03, 00:54:01,VALID,923.545,VALID,0,VALID,80.9351,VALID,-0.0509425,VALID,22.0462,VALID,109,VALID,2.05371,
2005-03-03, 00:55:00,VALID,923.552,VALID,0,VALID,80.4824,VALID,-0.0169808,VALID,22.0327,VALID,106,VALID,1.83086,
2005-03-03, 00:56:01,VALID,923.542,VALID,0,VALID,81.0012,VALID,-0.0509425,VALID,22.0298,VALID,73,VALID,1.53813,
2005-03-03, 00:57:00,VALID,923.53,VALID,0,VALID,80.7227,VALID,-0.0849042,VALID,22.0042,VALID,98,VALID,1.78038,
2005-03-03, 00:58:00,VALID,923.499,VALID,0,VALID,80.8601,VALID,0.0339617,VALID,21.9926,VALID,111,VALID,1.84826,
2005-03-03, 00:59:00,VALID,923.505,VALID,0,VALID,81.1424,VALID,0.0679233,VALID,22.0157,VALID,131,VALID,0.969815,
2005-03-03, 01:00:00,VALID,923.506,VALID,0,VALID,81.384,VALID,0.101885,VALID,21.9988,VALID,84,VALID,1.54706,
2005-03-03, 01:01:00,VALID,923.487,VALID,0,VALID,81.6243,VALID,0.0849042,VALID,21.9729,VALID,91,VALID,1.30137,
2005-03-03, 01:02:00,VALID,923.468,VALID,0,VALID,81.0712,VALID,0.0849042,VALID,21.9473,VALID,85,VALID,1.46211,
2005-03-03, 01:03:01,VALID,923.437,VALID,0,VALID,80.1556,VALID,0.0849042,VALID,21.9794,VALID,65,VALID,2.0972,
2005-03-03, 01:04:00,VALID,923.424,VALID,0,VALID,80.5244,VALID,0.0679233,VALID,22.0351,VALID,95,VALID,1.64342,
2005-03-03, 01:05:01,VALID,923.402,VALID,0,VALID,80.476,VALID,0.0849042,VALID,22.0252,VALID,87,VALID,1.68806,
2005-03-03, 01:06:00,VALID,923.372,VALID,0,VALID,80.3667,VALID,0.0679233,VALID,22.0187,VALID,107,VALID,2.09579,
2005-03-03, 01:07:01,VALID,923.388,VALID,0,VALID,80.4621,VALID,0.0679233,VALID,22.0313,VALID,97,VALID,1.97285,
2005-03-03, 01:08:00,VALID,923.386,VALID,0,VALID,80.6922,VALID,0.0679233,VALID,22.0281,VALID,100,VALID,1.52065,
2005-03-03, 01:09:00,VALID,923.374,VALID,0,VALID,80.6324,VALID,0.0679233,VALID,21.9958,VALID,126,VALID,1.56925,
2005-03-03, 01:10:01,VALID,923.372,VALID,0,VALID,81.1373,VALID,0.0849042,VALID,21.9796,VALID,144,VALID,1.22898,
2005-03-03, 01:11:00,VALID,923.355,VALID,0,VALID,81.6129,VALID,0.0509425,VALID,21.9441,VALID,145,VALID,1.20785,
2005-03-03, 01:12:00,VALID,923.342,VALID,0,VALID,81.8278,VALID,0.101885,VALID,21.9188,VALID,122,VALID,1.05748,
2005-03-03, 01:13:00,VALID,923.295,VALID,0,VALID,81.6294,VALID,-0.0679233,VALID,21.8944,VALID,127,VALID,1.32412,
2005-03-03, 01:14:00,VALID,923.292,VALID,0,VALID,82.035,VALID,-0.0169808,VALID,21.8847,VALID,93,VALID,0.806641,
2005-03-03, 01:15:00,VALID,923.268,VALID,0,VALID,81.9435,VALID,-0.0509425,VALID,21.8295,VALID,119,VALID,1.33789,
2005-03-03, 01:16:00,VALID,923.232,VALID,0,VALID,81.7248,VALID,-0.0169808,VALID,21.8201,VALID,117,VALID,1.89662,
2005-03-03, 01:17:00,VALID,923.188,VALID,0,VALID,80.6032,VALID,-0.0339617,VALID,21.8392,VALID,113,VALID,2.88499,
2005-03-03, 01:18:00,VALID,923.164,VALID,0,VALID,79.4435,VALID,-0.0169808,VALID,21.9396,VALID,92,VALID,2.34784,
2005-03-03, 01:19:00,VALID,923.192,VALID,0,VALID,79.3405,VALID,-0.0509425,VALID,22.0298,VALID,99,VALID,1.94591,
2005-03-03, 01:20:00,VALID,923.162,VALID,0,VALID,78.9336,VALID,-0.0339617,VALID,22.075,VALID,134,VALID,2.50941,
2005-03-03, 01:21:01,VALID,923.16,VALID,0,VALID,79.0048,VALID,0,VALID,22.1176,VALID,96,VALID,1.99691,
2005-03-03, 01:22:00,VALID,923.15,VALID,0,VALID,78.3525,VALID,-0.0339617,VALID,22.1367,VALID,84,VALID,2.37173,
2005-03-03, 01:23:00,VALID,923.132,VALID,0,VALID,77.2729,VALID,0,VALID,22.1714,VALID,99,VALID,2.15015,
2005-03-03, 01:24:00,VALID,923.134,VALID,0,VALID,77.8909,VALID,-0.0169808,VALID,22.2492,VALID,91,VALID,1.42039,
2005-03-03, 01:25:00,VALID,923.136,VALID,0,VALID,78.0854,VALID,-0.0509425,VALID,22.2468,VALID,92,VALID,2.45389,
2005-03-03, 01:26:00,VALID,923.106,VALID,0,VALID,78.0752,VALID,-0.0339617,VALID,22.2268,VALID,52,VALID,2.82955,
2005-03-03, 01:27:00,VALID,923.083,VALID,0,VALID,78.3181,VALID,-0.0679233,VALID,22.2242,VALID,74,VALID,2.0476,
2005-03-03, 01:28:00,VALID,923.058,VALID,0,VALID,77.882,VALID,-0.0509425,VALID,22.2145,VALID,88,VALID,1.40774,
2005-03-03, 01:29:01,VALID,923.041,VALID,0,VALID,78.1795,VALID,-0.0509425,VALID,22.2368,VALID,121,VALID,1.25621,
2005-03-03, 01:30:01,VALID,923.055,VALID,0,VALID,78.8268,VALID,-0.101885,VALID,22.2465,VALID,108,VALID,2.1931,
2005-03-03, 01:31:01,VALID,923.073,VALID,0,VALID,79.0874,VALID,-0.0339617,VALID,22.2271,VALID,103,VALID,2.01693,
2005-03-03, 01:32:01,VALID,923.073,VALID,0,VALID,79.5401,VALID,-0.0339617,VALID,22.2048,VALID,110,VALID,1.32168,
2005-03-03, 01:33:00,VALID,923.081,VALID,0,VALID,79.9331,VALID,-0.0339617,VALID,22.1361,VALID,142,VALID,1.16908,
2005-03-03, 01:34:00,VALID,923.077,VALID,0,VALID,79.7283,VALID,-0.0679233,VALID,22.0944,VALID,149,VALID,1.37251,
2005-03-03, 01:35:00,VALID,923.064,VALID,0,VALID,79.0849,VALID,-0.0169808,VALID,22.0788,VALID,105,VALID,2.76842,
2005-03-03, 01:36:00,VALID,923.068,VALID,0,VALID,79.0099,VALID,-0.0169808,VALID,22.0944,VALID,109,VALID,2.01999,
2005-03-03, 01:37:01,VALID,923.058,VALID,0,VALID,78.8382,VALID,-0.0339617,VALID,22.1199,VALID,129,VALID,2.3334,
2005-03-03, 01:38:01,VALID,923.047,VALID,0,VALID,79.1281,VALID,-0.0509425,VALID,22.1431,VALID,107,VALID,1.81324,
2005-03-03, 01:39:00,VALID,922.999,VALID,0,VALID,79.2515,VALID,-0.0169808,VALID,22.1364,VALID,132,VALID,2.74927,
2005-03-03, 01:40:00,VALID,923.006,VALID,0,VALID,77.896,VALID,-0.0509425,VALID,22.1369,VALID,120,VALID,2.00017,
2005-03-03, 01:41:00,VALID,922.97,VALID,0,VALID,77.4216,VALID,-0.0509425,VALID,22.2048,VALID,113,VALID,2.75091,
2005-03-03, 01:42:01,VALID,922.992,VALID,0,VALID,78.4021,VALID,0,VALID,22.275,VALID,131,VALID,2.0173,
2005-03-03, 01:43:00,VALID,922.951,VALID,0,VALID,79.0785,VALID,-0.0169808,VALID,22.2398,VALID,143,VALID,2.03659,
2005-03-03, 01:44:00,VALID,922.915,VALID,0,VALID,78.9527,VALID,0,VALID,22.2069,VALID,132,VALID,2.07267,
2005-03-03, 01:45:00,VALID,922.921,VALID,0,VALID,79.0735,VALID,0,VALID,22.1716,VALID,119,VALID,1.26581,
2005-03-03, 01:46:00,VALID,922.879,VALID,0,VALID,78.9234,VALID,0,VALID,22.1329,VALID,115,VALID,1.42312,
2005-03-03, 01:47:00,VALID,922.873,VALID,0,VALID,79.2337,VALID,0,VALID,22.1162,VALID,126,VALID,1.77083,
2005-03-03, 01:48:00,VALID,922.872,VALID,0,VALID,79.6546,VALID,0,VALID,22.0944,VALID,112,VALID,1.45881,
2005-03-03, 01:49:01,VALID,922.842,VALID,0,VALID,79.0188,VALID,-0.0169808,VALID,22.0685,VALID,134,VALID,2.01381,
2005-03-03, 01:50:00,VALID,922.824,VALID,0,VALID,78.6513,VALID,0,VALID,22.0944,VALID,144,VALID,2.41684,
2005-03-03, 01:51:00,VALID,922.856,VALID,0,VALID,78.9132,VALID,0,VALID,22.1493,VALID,119,VALID,1.46076,
2005-03-03, 01:52:00,VALID,922.83,VALID,0,VALID,78.912,VALID,0,VALID,22.1558,VALID,106,VALID,1.31613,
2005-03-03, 01:53:01,VALID,922.787,VALID,0,VALID,78.6348,VALID,-0.0169808,VALID,22.1361,VALID,140,VALID,2.72228,
2005-03-03, 01:54:01,VALID,922.814,VALID,0,VALID,79.0023,VALID,0,VALID,22.1428,VALID,107,VALID,1.10302,
2005-03-03, 01:55:00,VALID,922.809,VALID,0,VALID,78.7492,VALID,0,VALID,22.1326,VALID,110,VALID,1.47363,
2005-03-03, 01:56:00,VALID,922.805,VALID,0,VALID,78.6462,VALID,0,VALID,22.1164,VALID,116,VALID,1.54249,
2005-03-03, 01:57:00,VALID,922.818,VALID,0,VALID,78.4656,VALID,-0.0169808,VALID,22.1364,VALID,120,VALID,1.58321,
2005-03-03, 01:58:00,VALID,922.822,VALID,0,VALID,78.5623,VALID,0.101885,VALID,22.1447,VALID,124,VALID,1.79794,
2005-03-03, 01:59:01,VALID,922.815,VALID,0,VALID,78.8789,VALID,0.0169808,VALID,22.1611,VALID,138,VALID,1.10305,
2005-03-03, 02:00:00,VALID,922.849,VALID,0,VALID,79.5249,VALID,0.0339617,VALID,22.1415,VALID,92,VALID,1.47066,
2005-03-03, 02:01:00,VALID,922.829,VALID,0,VALID,79.9356,VALID,0.0679233,VALID,22.0768,VALID,97,VALID,1.64402,
2005-03-03, 02:02:00,VALID,922.805,VALID,0,VALID,79.844,VALID,0.0509425,VALID,22.0354,VALID,116,VALID,1.96111,
2005-03-03, 02:03:01,VALID,922.786,VALID,0,VALID,80.0017,VALID,0.0679233,VALID,22.0443,VALID,138,VALID,1.48924,
2005-03-03, 02:04:00,VALID,922.802,VALID,0,VALID,79.8987,VALID,0.0339617,VALID,22.0281,VALID,115,VALID,1.99085,
2005-03-03, 02:05:00,VALID,922.78,VALID,0,VALID,79.5033,VALID,0.0339617,VALID,22.0155,VALID,105,VALID,1.92355,
2005-03-03, 02:06:00,VALID,922.751,VALID,0,VALID,79.488,VALID,0.0679233,VALID,22.0252,VALID,127,VALID,1.64748,
2005-03-03, 02:07:01,VALID,922.749,VALID,0,VALID,79.6737,VALID,0.0849042,VALID,22.0348,VALID,141,VALID,1.49913,
2005-03-03, 02:08:01,VALID,922.708,VALID,0,VALID,79.9114,VALID,0.101885,VALID,22.0281,VALID,102,VALID,0.773438,
2005-03-03, 02:09:01,VALID,922.685,VALID,0,VALID,80.0183,VALID,0.101885,VALID,22.0049,VALID,128,VALID,1.28379,
2005-03-03, 02:10:00,VALID,922.638,VALID,0,VALID,79.5223,VALID,0.0849042,VALID,21.9923,VALID,146,VALID,2.63072,
2005-03-03, 02:11:00,VALID,922.626,VALID,0,VALID,79.3723,VALID,0.0849042,VALID,22.0058,VALID,114,VALID,2.23996,
2005-03-03, 02:12:00,VALID,922.647,VALID,0,VALID,79.5656,VALID,0.0679233,VALID,21.9961,VALID,113,VALID,2.06688,
2005-03-03, 02:13:01,VALID,922.639,VALID,0,VALID,80.0818,VALID,0,VALID,22.0015,VALID,144,VALID,1.93173,
2005-03-03, 02:14:00,VALID,922.651,VALID,0,VALID,80.3819,VALID,-0.0169808,VALID,21.9748,VALID,137,VALID,1.47569,
2005-03-03, 02:15:01,VALID,922.637,VALID,0,VALID,80.504,VALID,0,VALID,21.939,VALID,144,VALID,1.41122,
2005-03-03, 02:16:00,VALID,922.656,VALID,0,VALID,81.0661,VALID,-0.0169808,VALID,21.897,VALID,110,VALID,1.72691,
2005-03-03, 02:17:01,VALID,922.599,VALID,0,VALID,80.3438,VALID,-0.0679233,VALID,21.8494,VALID,154,VALID,1.7607,
2005-03-03, 02:18:01,VALID,922.555,VALID,0,VALID,80.2967,VALID,-0.0169808,VALID,21.865,VALID,163,VALID,1.30171,
2005-03-03, 02:19:01,VALID,922.532,VALID,0,VALID,79.8034,VALID,-0.0339617,VALID,21.8946,VALID,131,VALID,1.47377,
2005-03-03, 02:20:00,VALID,922.511,VALID,0,VALID,79.0569,VALID,-0.0169808,VALID,21.946,VALID,131,VALID,1.62518,
2005-03-03, 02:21:01,VALID,922.489,VALID,0,VALID,79.2973,VALID,-0.0169808,VALID,21.994,VALID,145,VALID,1.56481,
2005-03-03, 02:22:01,VALID,922.442,VALID,0,VALID,79.2273,VALID,-0.0169808,VALID,22.0007,VALID,142,VALID,0.85434,
2005-03-03, 02:23:01,VALID,922.457,VALID,0,VALID,79.2845,VALID,-0.0339617,VALID,22.0142,VALID,138,VALID,1.53813,
2005-03-03, 02:24:01,VALID,922.474,VALID,0,VALID,78.8802,VALID,-0.0169808,VALID,22.0136,VALID,141,VALID,1.84127,
2005-03-03, 02:25:01,VALID,922.45,VALID,0,VALID,79.399,VALID,-0.0849042,VALID,22.0336,VALID,118,VALID,1.32222,
2005-03-03, 02:26:01,VALID,922.451,VALID,0,VALID,79.4257,VALID,-0.0509425,VALID,22.0212,VALID,127,VALID,1.83273,
2005-03-03, 02:27:01,VALID,922.41,VALID,0,VALID,79.5325,VALID,-0.0339617,VALID,21.9883,VALID,144,VALID,1.68056,
2005-03-03, 02:28:01,VALID,922.41,VALID,0,VALID,78.2113,VALID,-0.0679233,VALID,21.9918,VALID,131,VALID,1.8003,
2005-03-03, 02:29:01,VALID,922.398,VALID,0,VALID,78.3359,VALID,-0.0169808,VALID,22.0653,VALID,132,VALID,2.38988,
2005-03-03, 02:30:01,VALID,922.398,VALID,0,VALID,77.3225,VALID,-0.0169808,VALID,22.1399,VALID,116,VALID,2.99028,
2005-03-03, 02:31:01,VALID,922.418,VALID,0,VALID,78.0829,VALID,-0.0339617,VALID,22.2174,VALID,132,VALID,1.73349,
2005-03-03, 02:32:01,VALID,922.399,VALID,0,VALID,77.9277,VALID,-0.0679233,VALID,22.2142,VALID,114,VALID,1.33158,
2005-03-03, 02:33:01,VALID,922.393,VALID,0,VALID,78.1083,VALID,-0.0679233,VALID,22.1919,VALID,140,VALID,2.35387,
2005-03-03, 02:34:01,VALID,922.398,VALID,0,VALID,77.8756,VALID,-0.0169808,VALID,22.1655,VALID,143,VALID,3.24473,
2005-03-03, 02:35:01,VALID,922.366,VALID,0,VALID,77.2055,VALID,-0.0339617,VALID,22.198,VALID,85,VALID,2.64008,
2005-03-03, 02:36:01,VALID,922.342,VALID,0,VALID,77.2029,VALID,-0.0509425,VALID,22.2627,VALID,126,VALID,3.34152,
2005-03-03, 02:37:01,VALID,922.354,VALID,0,VALID,77.4051,VALID,-0.0339617,VALID,22.2627,VALID,115,VALID,2.71708,
2005-03-03, 02:38:01,VALID,922.314,VALID,0,VALID,77.7624,VALID,-0.0339617,VALID,22.2568,VALID,94,VALID,1.55785,
2005-03-03, 02:39:01,VALID,922.307,VALID,0,VALID,77.8603,VALID,-0.0339617,VALID,22.2172,VALID,74,VALID,2.4363,
2005-03-03, 02:40:01,VALID,922.299,VALID,0,VALID,77.2487,VALID,0,VALID,22.1846,VALID,103,VALID,2.88849,
2005-03-03, 02:41:01,VALID,922.255,VALID,0,VALID,76.941,VALID,-0.0509425,VALID,22.2333,VALID,99,VALID,1.85382,
2005-03-03, 02:42:01,VALID,922.262,VALID,0,VALID,76.796,VALID,-0.0169808,VALID,22.2691,VALID,128,VALID,2.28792,
2005-03-03, 02:43:01,VALID,922.268,VALID,0,VALID,77.6073,VALID,0.0509425,VALID,22.2704,VALID,136,VALID,1.57266,
2005-03-03, 02:44:01,VALID,922.276,VALID,0,VALID,77.7472,VALID,0.0679233,VALID,22.2252,VALID,123,VALID,1.77912,
2005-03-03, 02:45:01,VALID,922.283,VALID,0,VALID,78.0587,VALID,0.0849042,VALID,22.1438,VALID,138,VALID,1.65179,
2005-03-03, 02:46:01,VALID,922.295,VALID,0,VALID,78.1414,VALID,0.0339617,VALID,22.1221,VALID,137,VALID,1.77241,
2005-03-03, 02:47:01,VALID,922.295,VALID,0,VALID,78.2329,VALID,0.0509425,VALID,22.09,VALID,109,VALID,1.40701,
2005-03-03, 02:48:01,VALID,922.302,VALID,0,VALID,78.3779,VALID,0.0679233,VALID,22.0736,VALID,104,VALID,1.35461,
2005-03-03, 02:49:01,VALID,922.28,VALID,0,VALID,78.3995,VALID,0.0679233,VALID,22.0607,VALID,118,VALID,1.46336,
2005-03-03, 02:50:01,VALID,922.283,VALID,0,VALID,78.9539,VALID,0.0679233,VALID,22.0348,VALID,117,VALID,1.49961,
2005-03-03, 02:51:01,VALID,922.229,VALID,0,VALID,77.8425,VALID,0.0509425,VALID,22.009,VALID,144,VALID,2.55354,
2005-03-03, 02:52:01,VALID,922.266,VALID,0,VALID,77.8934,VALID,0.0339617,VALID,22.0545,VALID,88,VALID,1.54325,
2005-03-03, 02:53:00,VALID,922.265,VALID,0,VALID,77.8425,VALID,0.0679233,VALID,22.0569,VALID,136,VALID,1.46559,
2005-03-03, 02:54:00,VALID,922.244,VALID,0,VALID,77.6442,VALID,0.0849042,VALID,22.0863,VALID,59,VALID,2.50457,
2005-03-03, 02:55:00,VALID,922.216,VALID,0,VALID,77.4382,VALID,0.0849042,VALID,22.1091,VALID,67,VALID,2.47693,
2005-03-03, 02:56:00,VALID,922.225,VALID,0,VALID,77.4115,VALID,0.0849042,VALID,22.1024,VALID,73,VALID,2.27641,
2005-03-03, 02:57:00,VALID,922.204,VALID,0,VALID,77.4013,VALID,0.0679233,VALID,22.0992,VALID,110,VALID,2.50981,
2005-03-03, 02:58:00,VALID,922.213,VALID,0,VALID,76.7642,VALID,-0.0679233,VALID,22.1426,VALID,103,VALID,3.307,
2005-03-03, 02:59:00,VALID,922.132,VALID,0,VALID,76.1284,VALID,-0.0169808,VALID,22.1978,VALID,101,VALID,3.48733,
2005-03-03, 03:00:00,VALID,922.116,VALID,0,VALID,75.6427,VALID,-0.0679233,VALID,22.2597,VALID,81,VALID,2.96447,
2005-03-03, 03:01:00,VALID,922.115,VALID,0,VALID,75.1798,VALID,-0.0339617,VALID,22.3044,VALID,72,VALID,2.48935,
2005-03-03, 03:02:00,VALID,922.163,VALID,0,VALID,75.4723,VALID,-0.101885,VALID,22.3405,VALID,78,VALID,2.15835,
2005-03-03, 03:03:00,VALID,922.14,VALID,0,VALID,75.4023,VALID,-0.0679233,VALID,22.3467,VALID,74,VALID,3.86338,
2005-03-03, 03:04:00,VALID,922.133,VALID,0,VALID,75.4964,VALID,-0.0679233,VALID,22.3367,VALID,81,VALID,2.96857,
2005-03-03, 03:05:00,VALID,922.102,VALID,0,VALID,75.4735,VALID,-0.0679233,VALID,22.3373,VALID,130,VALID,2.27131,
2005-03-03, 03:06:00,VALID,922.108,VALID,0,VALID,75.8245,VALID,-0.0509425,VALID,22.3208,VALID,67,VALID,1.96893,
2005-03-03, 03:07:00,VALID,922.113,VALID,0,VALID,76.1755,VALID,-0.0509425,VALID,22.2688,VALID,76,VALID,2.28418,
2005-03-03, 03:08:00,VALID,922.087,VALID,0,VALID,76.3115,VALID,-0.0339617,VALID,22.2169,VALID,93,VALID,2.79433,
2005-03-03, 03:09:00,VALID,922.078,VALID,0,VALID,76.5951,VALID,-0.0509425,VALID,22.1781,VALID,101,VALID,2.43483,
2005-03-03, 03:10:00,VALID,922.053,VALID,0,VALID,76.5926,VALID,-0.0509425,VALID,22.1523,VALID,63,VALID,2.54179,
2005-03-03, 03:11:00,VALID,922.073,VALID,0,VALID,76.3026,VALID,-0.0169808,VALID,22.1138,VALID,85,VALID,2.55859,
2005-03-03, 03:12:00,VALID,922.083,VALID,0,VALID,76.0954,VALID,-0.0339617,VALID,22.1194,VALID,80,VALID,2.04488,
2005-03-03, 03:13:00,VALID,922.108,VALID,0,VALID,75.8665,VALID,0.101885,VALID,22.1506,VALID,89,VALID,1.7048,
2005-03-03, 03:14:00,VALID,922.074,VALID,0,VALID,75.9707,VALID,0.0679233,VALID,22.1632,VALID,71,VALID,2.98847,
2005-03-03, 03:15:00,VALID,922.073,VALID,0,VALID,76.4107,VALID,0.0679233,VALID,22.1509,VALID,123,VALID,1.98704,
2005-03-03, 03:16:00,VALID,922.022,VALID,0,VALID,75.6706,VALID,0.0509425,VALID,22.1183,VALID,138,VALID,2.69513,
2005-03-03, 03:17:00,VALID,922.069,VALID,0,VALID,76.0292,VALID,0.0509425,VALID,22.1377,VALID,65,VALID,1.96984,
2005-03-03, 03:18:00,VALID,922.089,VALID,0,VALID,76.1856,VALID,0.101885,VALID,22.1274,VALID,81,VALID,2.2484,
2005-03-03, 03:19:00,VALID,922.075,VALID,0,VALID,76.1195,VALID,0.0339617,VALID,22.1183,VALID,119,VALID,1.63796,
2005-03-03, 03:20:00,VALID,922.106,VALID,0,VALID,76.7363,VALID,0.0849042,VALID,22.1188,VALID,89,VALID,1.53888,
2005-03-03, 03:21:00,VALID,922.104,VALID,0,VALID,76.6065,VALID,0.0849042,VALID,22.0537,VALID,48,VALID,2.52827,
2005-03-03, 03:22:00,VALID,922.091,VALID,0,VALID,76.7757,VALID,0.0679233,VALID,22.0249,VALID,75,VALID,2.00651,
2005-03-03, 03:23:00,VALID,922.052,VALID,0,VALID,76.562,VALID,0.0679233,VALID,22.0058,VALID,51,VALID,2.3492,
2005-03-03, 03:24:00,VALID,922.077,VALID,0,VALID,76.7477,VALID,0.0679233,VALID,21.9923,VALID,61,VALID,2.30796,
2005-03-03, 03:25:00,VALID,922.092,VALID,0,VALID,76.1755,VALID,0.0169808,VALID,22.0117,VALID,101,VALID,2.22266,
2005-03-03, 03:26:00,VALID,922.092,VALID,0,VALID,76.4883,VALID,0.0679233,VALID,22.0407,VALID,72,VALID,1.85807,
2005-03-03, 03:27:00,VALID,922.076,VALID,0,VALID,76.6231,VALID,0.0509425,VALID,22.0149,VALID,70,VALID,2.25764,
2005-03-03, 03:28:00,VALID,922.054,VALID,0,VALID,76.6727,VALID,-0.0339617,VALID,21.9907,VALID,102,VALID,2.01786,
2005-03-03, 03:29:00,VALID,922.032,VALID,0,VALID,76.3535,VALID,-0.0679233,VALID,22.001,VALID,103,VALID,1.78735,
2005-03-03, 03:30:00,VALID,922.028,VALID,0,VALID,76.3192,VALID,-0.0339617,VALID,21.9975,VALID,91,VALID,2.83802,
2005-03-03, 03:31:00,VALID,922.015,VALID,0,VALID,76.2619,VALID,-0.0849042,VALID,22.001,VALID,81,VALID,2.61147,